Starlink 5225

operational
NORAD ID: 54063 Int'l Des: 2022-136 Owner: SPXS Country: US Constellation: starlink
LEOCIRCULAR

Starlink 5225について

説明を読み込み中...

リアルタイム位置

3D地球を読み込み中...

次回通過

高度履歴

Altitude vs Time

uPlot chart will show altitude changes over time

軌道要素

1 54063U 22136N 25349.33335648 .01135304 00000-0 42542-1 0 9995
2 54063 53.2176 2.0855 0001392 83.3575 126.2332 15.24105072 5809
Epoch: Dec 15, 2025 • Age: 18 hours

現在のステータス

高度 492.5 km
速度 7.62 km/s
衛星直下点 45.43°N, 7.43°E
打ち上げ日 Oct 20, 2022
運用期間 3.1 years
タイプ internet

技術仕様

分類 Payload
質量 305.00 kg
乾燥質量 290.00 kg
総質量 305.00 kg
長さ 0.20 m
直径 2.80 m
スパン 9.00 m
形状 Box + pan
製造者 SPXS
バスタイプ Starlink
フェーズステータス In Orbit
所有者/国 SPXS/US

大規模コンステレーション

Loading constellations...